Date String (YYYY-MM-DD hh:mm:ss) UTC,Instrument flags,absolute air pressure of the measurement (hPa),sample flow rate (lpm),inlet stack bypass flow (lpm),air temperature of the measurement (°C),ambient temperature measured by the external sensor (°C),aerosol sample conditioner tube jacket temperature (°C),OPC LED temperature (°C),internal box temperature (°C),relative humidity of the measurement (%),span deviation,mass concentration of particles derived from Lorenz-Mie calculation of OPC scattering (μg/m³),mass concentration of particles derived from Lorenz-Mie calculation of OPC scattering (μg/m³),mass concentration of particles derived from Lorenz-Mie calculation of OPC scattering (μg/m³)
DateTimeUTC,F1_M11,P_M11,Q1_M11,Q2_M11,T1_M11,T2_M11,T3_M11,T4_M11,T5_M11,U1_M11,ZSPAN_M11,X0_M11,X2_M11,X1_M11
2023-07-02 12:00:00,SystemResetWarning,0832.3,4.99,000.00,029.9,028.6,000.0,038.5,031.4,21.1,0001.2,0012.11,0004.83,0004.19
2023-07-02 12:01:00,SystemResetWarning,0832.3,5.00,000.00,029.9,028.6,000.0,038.5,031.4,21.2,0000.7,0012.26,0004.84,0004.20
2023-07-02 12:02:00,SystemResetWarning,0832.3,5.00,000.00,030.0,028.6,000.0,038.5,031.4,21.0,0000.7,0012.39,0004.83,0004.20
2023-07-02 12:03:00,SystemResetWarning,0832.2,5.01,000.00,030.0,028.6,000.0,038.5,031.5,20.8,0000.8,0012.90,0004.84,0004.20
2023-07-02 12:04:00,SystemResetWarning,0832.2,5.01,000.00,030.0,028.6,000.0,038.5,031.5,20.7,0000.5,0012.55,0004.85,0004.20
2023-07-02 12:05:00,SystemResetWarning,0832.2,5.01,000.00,030.0,028.6,000.0,038.5,031.5,20.6,0000.1,0012.16,0004.82,0004.20
2023-07-02 12:06:00,SystemResetWarning,0832.3,5.00,000.00,030.0,028.6,000.0,038.5,031.5,20.6,0000.1,0011.85,0004.78,0004.19
2023-07-02 12:07:00,SystemResetWarning,0832.3,5.00,000.00,030.0,028.7,000.0,038.5,031.5,20.6,0000.1,0011.86,0004.78,0004.17
2023-07-02 12:08:00,SystemResetWarning,0832.3,4.99,000.00,030.0,028.7,000.0,038.6,031.5,20.6,0000.4,0010.98,0004.76,0004.16
2023-07-02 12:09:00,SystemResetWarning,0832.3,5.00,000.00,030.0,028.7,000.0,038.6,031.6,20.7,0000.2,0009.73,0004.71,0004.15
2023-07-02 12:10:00,SystemResetWarning,0832.3,4.99,000.00,030.0,028.7,000.0,038.6,031.6,20.9,-000.0,0009.66,0004.70,0004.13
2023-07-02 12:11:00,SystemResetWarning,0832.3,5.00,000.00,030.0,028.7,000.0,038.6,031.5,20.5,-000.3,0009.25,0004.71,0004.13
2023-07-02 12:12:00,SystemResetWarning,0832.3,4.99,000.00,030.0,028.7,000.0,038.6,031.5,20.3,-000.3,0009.08,0004.70,0004.13
2023-07-02 12:13:00,SystemResetWarning,0832.3,5.01,000.00,030.1,028.7,000.0,038.6,031.6,19.9,0000.0,0008.77,0004.68,0004.11
2023-07-02 12:14:00,SystemResetWarning,0832.3,5.01,000.00,030.1,028.7,000.0,038.6,031.6,19.9,0000.0,0008.06,0004.63,0004.09
2023-07-02 12:15:00,SystemResetWarning,0832.4,5.00,000.00,030.1,028.8,000.0,038.6,031.6,19.6,0000.0,0007.79,0004.57,0004.06
2023-07-02 12:16:00,SystemResetWarning,0832.5,4.99,000.00,030.1,028.8,000.0,038.6,031.6,19.7,0000.0,0007.73,0004.51,0004.03
2023-07-02 12:17:00,SystemResetWarning,0832.6,5.00,000.00,030.1,028.8,000.0,038.6,031.6,20.1,0000.0,0007.88,0004.46,0004.01
2023-07-02 12:18:00,SystemResetWarning,0832.5,5.00,000.00,030.1,027.8,000.0,038.6,031.6,19.8,0000.0,0007.85,0004.42,0003.99
2023-07-02 12:19:00,SystemResetWarning,0832.5,5.00,000.00,030.1,026.0,000.0,038.4,031.4,20.4,0000.0,0007.94,0004.42,0003.98
2023-07-02 12:20:00,SystemResetWarning,0832.5,5.00,000.00,030.0,025.7,000.0,038.4,031.2,21.2,0000.0,0007.83,0004.37,0003.96
2023-07-02 12:21:00,SystemResetWarning,0832.5,5.01,000.00,029.8,026.0,000.0,038.4,030.9,21.7,0000.0,0008.83,0004.34,0003.97
2023-07-02 12:22:00,SystemResetWarning,0832.5,4.99,000.00,029.8,026.3,000.0,038.4,030.9,22.1,0000.0,0008.93,0004.32,0003.97
2023-07-02 12:23:00,SystemResetWarning,0832.5,4.98,000.00,029.7,026.7,000.0,038.4,031.0,21.9,0000.0,0009.01,0004.34,0003.97
2023-07-02 12:24:00,SystemResetWarning,0832.6,5.01,000.00,029.7,027.0,000.0,038.4,031.1,22.3,0000.0,0009.24,0004.37,0003.97
2023-07-02 12:25:00,SystemResetWarning,0832.5,5.01,000.00,029.7,027.3,000.0,038.4,031.1,22.4,0000.0,0009.91,0004.39,0003.98
2023-07-02 12:26:00,SystemResetWarning,0832.5,5.00,000.00,029.7,027.5,000.0,038.4,031.1,22.4,0000.0,0009.98,0004.43,0004.00
2023-07-02 12:27:00,SystemResetWarning,0832.5,5.00,000.00,029.7,027.7,000.0,038.4,031.2,22.3,0000.4,0010.31,0004.48,0004.03
2023-07-02 12:28:00,SystemResetWarning,0832.5,5.00,000.00,029.7,027.9,000.0,038.4,031.2,22.2,0001.6,0010.92,0004.53,0004.06
2023-07-02 12:29:00,SystemResetWarning,0832.5,5.00,000.00,029.7,028.0,000.0,038.4,031.2,21.8,0001.4,0011.22,0004.59,0004.08
2023-07-02 12:30:00,SystemResetWarning,0832.5,4.99,000.00,029.7,028.1,000.0,038.3,031.2,21.7,0001.0,0011.49,0004.61,0004.11
2023-07-02 12:31:00,SystemResetWarning,0832.5,4.99,000.00,029.7,028.2,000.0,038.3,031.2,21.5,0000.7,0011.52,0004.62,0004.11
2023-07-02 12:32:00,SystemResetWarning,0832.5,4.99,000.00,029.7,028.3,000.0,038.3,031.3,21.3,0000.0,0010.48,0004.62,0004.10
2023-07-02 12:33:00,SystemResetWarning,0832.5,4.99,000.00,029.8,028.3,000.0,038.4,031.3,21.2,0000.1,0010.34,0004.62,0004.10
2023-07-02 12:34:00,SystemResetWarning,0832.5,5.00,000.00,029.8,028.4,000.0,038.4,031.3,21.3,0000.3,0011.34,0004.56,0004.10
2023-07-02 12:35:00,SystemResetWarning,0832.5,5.00,000.00,029.8,028.4,000.0,038.4,031.3,21.4,0000.0,0011.86,0004.52,0004.08
2023-07-02 12:36:00,SystemResetWarning,0832.5,5.00,000.00,029.8,028.5,000.0,038.4,031.4,21.5,0000.0,0011.21,0004.52,0004.07
2023-07-02 12:37:00,SystemResetWarning,0832.5,5.00,000.00,029.8,028.5,000.0,038.4,031.4,21.2,0000.0,0011.42,0004.49,0004.07
2023-07-02 12:38:00,SystemResetWarning,0832.5,5.00,000.00,029.8,028.6,000.0,038.4,031.4,21.2,0000.0,0011.45,0004.47,0004.06
2023-07-02 12:39:00,SystemResetWarning,0832.5,5.01,000.00,029.9,028.6,000.0,038.4,031.4,21.2,0000.0,0010.75,0004.48,0004.07
2023-07-02 12:40:00,SystemResetWarning,0832.5,5.01,000.00,029.9,028.6,000.0,038.4,031.4,20.9,0000.0,0010.41,0004.44,0004.06
2023-07-02 12:41:00,SystemResetWarning,0832.5,5.00,000.00,029.9,028.7,000.0,038.4,031.4,20.7,0000.0,0010.20,0004.42,0004.05
2023-07-02 12:42:00,SystemResetWarning,0832.5,5.00,000.00,029.9,028.7,000.0,038.4,031.4,20.7,0000.0,0010.16,0004.43,0004.05
2023-07-02 12:43:00,SystemResetWarning,0832.5,5.00,000.00,029.9,028.7,000.0,038.5,031.5,20.6,0000.0,0010.06,0004.42,0004.05
2023-07-02 12:44:00,SystemResetWarning,0832.6,4.99,000.00,029.9,028.7,000.0,038.5,031.5,20.7,0000.0,0009.99,0004.39,0004.04
2023-07-02 12:45:00,SystemResetWarning,0832.6,5.00,000.00,030.0,028.8,000.0,038.5,031.5,20.6,0000.0,0008.86,0004.38,0004.03
2023-07-02 12:46:00,SystemResetWarning,0832.6,5.00,000.00,030.0,028.8,000.0,038.5,031.5,20.4,0000.0,0008.31,0004.40,0004.04
2023-07-02 12:47:00,SystemResetWarning,0832.6,5.00,000.00,030.0,028.8,000.0,038.5,031.6,20.5,0000.0,0008.29,0004.38,0004.03
2023-07-02 12:48:00,SystemResetWarning,0832.6,4.99,000.00,030.0,028.5,000.0,038.5,031.6,20.9,-000.3,0008.18,0004.35,0004.03
2023-07-02 12:49:00,SystemResetWarning,0832.5,5.00,000.00,030.0,026.8,000.0,038.4,031.4,21.7,-000.2,0007.59,0004.33,0004.01
2023-07-02 12:50:00,SystemResetWarning,0832.5,5.02,000.00,029.9,026.1,000.0,038.3,031.3,20.7,0000.0,0007.52,0004.29,0003.98
2023-07-02 12:51:00,SystemResetWarning,0832.5,5.00,000.00,029.9,026.3,000.0,038.3,031.1,19.7,0000.2,0007.54,0004.31,0003.98
2023-07-02 12:52:00,SystemResetWarning,0832.5,4.99,000.00,029.8,026.6,000.0,038.3,031.0,19.6,0000.5,0007.36,0004.31,0003.97
2023-07-02 12:53:00,SystemResetWarning,0832.5,5.01,000.00,029.7,026.9,000.0,038.3,031.0,21.1,0000.0,0007.75,0004.29,0003.95
2023-07-02 12:54:00,SystemResetWarning,0832.5,5.01,000.00,029.7,027.2,000.0,038.3,031.1,21.8,0000.3,0008.01,0004.30,0003.94
2023-07-02 12:55:00,SystemResetWarning,0832.5,5.00,000.00,029.7,027.4,000.0,038.3,031.1,23.7,0000.3,0008.50,0004.33,0003.92
2023-07-02 12:56:00,SystemResetWarning,0832.5,4.99,000.00,029.7,027.7,000.0,038.3,031.1,24.0,0000.5,0008.89,0004.34,0003.93
2023-07-02 12:57:00,SystemResetWarning,0832.5,5.00,000.00,029.7,027.8,000.0,038.3,031.2,22.1,-000.4,0008.90,0004.34,0003.93
2023-07-02 12:58:00,SystemResetWarning,0832.5,4.99,000.00,029.7,028.0,000.0,038.3,031.2,21.7,-000.3,0008.77,0004.32,0003.93
2023-07-02 12:59:00,SystemResetWarning,0832.5,5.01,000.00,029.7,028.1,000.0,038.3,031.3,21.3,0000.0,0008.69,0004.34,0003.93
